This demonstration page uses our WeatherBlox Daily Observations layout. Learn more.

Left ArrowRight Arrow

39.92423, -83.80882

Hourly Observations for March 27, 2018

Temp ( °F °C ) Dew Point ( °F °C ) Humidity (%) Winds ( mph kmh ) Pressure ( in mb ) Visibility ( mi km ) Precip ( " mm )
12:56 am 00:56 Cloudy 45 7.2 34 1.1 66 66 SE 14 22 30.21 1023 10 16 N/A
1:56 am 01:56 Cloudy 46 7.8 34 1.1 63 63 SE 13 20 30.19 1022 10 16 N/A
2:56 am 02:56 Cloudy 47 8.3 34 1.1 61 61 SSE 13 20 30.17 1022 10 16 N/A
3:56 am 03:56 Cloudy with Light Rain 44 6.7 38 3.3 79 79 SSE 13 20 30.16 1021 10 16 0.01 0.25
4:56 am 04:56 Cloudy with Light Rain 45 7.2 40 4.4 83 83 SSE 12 19 30.15 1021 10 16 N/A
5:56 am 05:56 Cloudy 45 7.2 40 4.4 83 83 SSE 10 17 30.13 1020 10 16 N/A
6:56 am 06:56 Cloudy with Light Rain 45 7.2 41 5 86 86 SSE 10 17 30.12 1020 10 16 N/A
7:56 am 07:56 Cloudy with Light Rain 46 7.8 42 5.6 86 86 S 8 13 30.14 1021 10 16 N/A
8:56 am 08:56 Cloudy with Light Rain 48 8.9 43 6.1 83 83 S 10 17 30.14 1021 10 16 N/A
9:18 am 09:18 Cloudy with Rain 46 8 45 7 93 93 SSW 7 11 30.15 1021 8 13 0.05 1.27
9:56 am 09:56 Cloudy with Light Rain 48 8.9 46 7.8 93 93 S 8 13 30.14 1021 8 13 0.17 4.32
10:22 am 10:22 Cloudy with Light Rain 48 9 46 8 94 94 S 9 15 30.15 1021 3 4 0.01 0.25
10:37 am 10:37 Cloudy with Light Rain 48 9 46 8 94 94 S 8 13 30.15 1021 3 4 0.01 0.25
10:56 am 10:56 Cloudy with Light Rain 48 8.9 47 8.3 96 96 S 9 15 30.13 1020 2 3 0.01 0.25
11:56 am 11:56 Cloudy with Light Rain 50 10 49 9.4 96 96 SSW 10 17 30.11 1020 2 3 0.01 0.25
12:06 pm 12:06 Cloudy with Light Rain 50 10 48 9 94 94 SSW 12 19 30.12 1020 2 3 N/A
12:26 pm 12:26 Cloudy with Light Rain 52 11 50 10 94 94 SSW 14 22 30.09 1019 2 2 N/A
12:56 pm 12:56 Cloudy with Light Rain 51 10.6 50 10 96 96 SSW 12 19 30.10 1019 3 5 N/A
1:08 pm 13:08 Cloudy with Light Rain 52 11 50 10 94 94 SSW 12 19 30.09 1019 3 4 N/A
1:32 pm 13:32 Cloudy with Light Rain 52 11 50 10 94 94 SSW 15 24 30.09 1019 3 4 N/A
1:56 pm 13:56 Cloudy with Light Rain 51 10.6 50 10 96 96 SW 13 20 30.09 1019 3 4 N/A
2:12 pm 14:12 Cloudy with Light Rain 52 11 50 10 94 94 SSW 10 17 30.06 1018 2 3 N/A
2:27 pm 14:27 Cloudy with Light Rain 52 11 52 11 100 100 SSW 12 19 30.06 1018 2 3 0.01 0.25
2:52 pm 14:52 Cloudy with Light Rain 52 11 52 11 100 100 SSW 12 19 30.06 1018 4 6 0.01 0.25
2:56 pm 14:56 Cloudy with Light Rain 52 11.1 51 10.6 97 97 SW 12 19 30.07 1018 4 6 0.01 0.25
3:23 pm 15:23 Cloudy with Mist and Fog 52 11 52 11 100 100 SW 12 19 30.06 1018 2 3 N/A
3:42 pm 15:42 Cloudy with Light Rain 52 11 52 11 100 100 SW 15 24 30.03 1017 2 3 N/A
3:56 pm 15:56 Cloudy with Light Rain 52 11.1 51 10.6 97 97 SW 10 17 30.05 1018 2 3 N/A
4:30 pm 16:30 Cloudy with Mist and Fog 52 11 52 11 100 100 SW 10 17 30.03 1017 3 5 0.01 0.25
4:56 pm 16:56 Cloudy with Mist and Fog 53 11.7 51 10.6 93 93 SW 10 17 30.05 1018 5 8 0.01 0.25
5:43 pm 17:43 Cloudy with Mist and Fog 54 12 52 11 94 94 SW 10 17 30.03 1017 5 8 N/A
5:56 pm 17:56 Cloudy with Light Rain 53 11.7 52 11.1 96 96 SW 13 20 30.04 1017 6 10 N/A
6:03 pm 18:03 Cloudy with Light Rain 54 12 52 11 94 94 SW 9 15 30.03 1017 6 10 N/A
6:56 pm 18:56 Cloudy with Light Rain 53 11.7 52 11.1 96 96 SSW 8 13 30.05 1018 6 10 N/A
7:09 pm 19:09 Cloudy with Light Rain 54 12 52 11 94 94 SW 12 19 30.03 1017 6 10 N/A
7:56 pm 19:56 Cloudy with Light Rain 53 11.7 52 11.1 96 96 SSW 8 13 30.04 1017 4 6 0.01 0.25
8:40 pm 20:40 Cloudy with Light Rain 54 12 52 11 94 94 SW 8 13 30.03 1017 5 8 0.04 1.02
8:56 pm 20:56 Cloudy with Light Rain 53 11.7 52 11.1 96 96 SW 10 17 30.04 1017 5 8 0.06 1.52
9:21 pm 21:21 Cloudy with Rain 54 12 52 11 94 94 WSW 8 13 30.03 1017 3 5 0.04 1.02
9:56 pm 21:56 Cloudy with Light Rain 53 11.7 52 11.1 96 96 SW 7 11 30.05 1018 4 6 0.06 1.52
10:06 pm 22:06 Cloudy with Light Rain 54 12 52 11 94 94 SW 6 9 30.03 1017 3 4 N/A
10:56 pm 22:56 Cloudy with Light Rain 53 11.7 53 11.7 100 100 WSW 8 13 30.04 1017 3 5 0.02 0.51
11:06 pm 23:06 Cloudy with Light Rain 54 12 54 12 100 100 W 7 11 30.03 1017 3 4 N/A
11:26 pm 23:26 Cloudy with Light Rain 54 12 54 12 100 100 WSW 7 11 30.03 1017 3 5 0.02 0.51
11:41 pm 23:41 Cloudy with Light Rain 54 12 52 11 94 94 WSW 7 11 30.03 1017 3 4 0.03 0.76
11:49 pm 23:49 Cloudy with Light Rain 54 12 54 12 100 100 WSW 7 11 30.03 1017 3 5 0.03 0.76
11:56 pm 23:56 Cloudy with Light Rain 53 11.7 53 11.7 100 100 WSW 7 11 30.04 1017 4 6 0.03 0.76

Powered by AerisWeather